Change the Weather History Date:

Sunday, December 8, 2013

  Actual Average Record
Temperature  
Mean Temperature -15 °F 20 °F  
Max Temperature 4 °F 33 °F 64 °F (1939)
Min Temperature -35 °F 8 °F -39 °F (1972)
Degree Days  
Heating Degree Days 80 45  
Month to date heating degree days 526 347  
Since 1 July heating degree days 2463 2365  
Cooling Degree Days 0 0  
Month to date cooling degree days 0 0  
Year to date cooling degree days 520 421  
Moisture  
Dew Point -15 °F    
Average Humidity 73    
Maximum Humidity 81    
Minimum Humidity 64    
Precipitation  
Precipitation 0.00 in 0.01 in 0.30 in (1906)
Month to date precipitation 0.59 0.07  
Year to date precipitation 16.94 12.45  
Snow  
Snow 0.00 in - - ()
Month to date snowfall 0.0  
Since 1 July snowfall 0.0  
Snow Depth 0.00 in    
Sea Level Pressure  
Sea Level Pressure 30.30 in    
Wind  
Wind Speed 8 mph (WNW)    
Max Wind Speed 26 mph    
Max Gust Speed 27 mph    
T = Trace of Precipitation, MM = Missing Value Source: NWS Daily Summary

Daily Weather History Graph

Daily Weather History Graph

Search for Another Location

Airport or City:

Trip Planner

Search our weather history database for the weather conditions in past years. The results will help you decide how hot, cold, wet, or windy it might be!

Date:

Astronomy

Dec. 08, 2013 Rise Set
Actual Time 7:42 AM MST 4:17 PM MST
Civil Twilight 7:06 AM MST 4:52 PM MST
Nautical Twilight 6:27 AM MST 5:31 PM MST
Astronomical Twilight 5:50 AM MST 6:08 PM MST
Moon 11:44 AM MST (12/8) 11:31 PM MST (12/8)
Length of Visible Light 9h 46m
Length of Day
8h 35m
Waxing Crescent, 40% of the Moon is Illuminated
Dec 8
Waxing Crescent
Dec 9
First Quarter
Dec 17
Full
Dec 25
Last Quarter
Jan 1
New

Hourly Weather History & Observations

Time (MST) Temp. Windchill Dew Point Humidity Pressure Visibility Wind Dir Wind Speed Gust Speed Precip Events Conditions
12:48 AM - - - N/A% 30.36 in - Calm Calm - N/A   Unknown
1:48 AM - - - N/A% 30.33 in - Calm Calm - N/A   Unknown
2:48 AM - - - N/A% 30.29 in - Calm Calm - N/A   Unknown
3:48 AM - - - N/A% 30.26 in - WSW 3.5 mph - N/A   Unknown
4:48 AM -23.1 °F - -27.9 °F 78% 30.24 in - Calm Calm - N/A   Unknown
5:48 AM -26.0 °F -40.2 °F -32.1 °F 73% 30.23 in - WNW 4.6 mph - N/A   Unknown
6:48 AM -23.1 °F - -29.0 °F 74% 30.23 in - Calm Calm - N/A   Unknown
7:48 AM -13.0 °F -27.0 °F -20.0 °F 71% 30.22 in - West 5.8 mph - N/A   Unknown
8:48 AM -6.0 °F -23.6 °F -14.1 °F 68% 30.22 in - West 10.4 mph - N/A   Unknown
9:48 AM -2.9 °F -20.8 °F -9.9 °F 72% 30.24 in - West 11.5 mph - N/A   Unknown
10:48 AM -0.9 °F -19.9 °F -8.0 °F 72% 30.25 in - West 13.8 mph - N/A   Unknown
11:48 AM 1.0 °F -16.6 °F -7.1 °F 69% 30.25 in - WNW 12.7 mph - N/A   Unknown
12:48 PM 3.0 °F -17.3 °F -4.0 °F 73% 30.26 in - WNW 18.4 mph - N/A   Unknown
1:48 PM 3.0 °F -15.5 °F -5.1 °F 69% 30.27 in - NW 15.0 mph - N/A   Unknown
2:48 PM 3.0 °F -16.1 °F -4.0 °F 73% 30.29 in - NW 16.1 mph - N/A   Unknown
3:48 PM 1.0 °F -20.4 °F -7.1 °F 69% 30.33 in - NW 19.6 mph - N/A   Unknown
4:48 PM -0.9 °F -18.3 °F -9.0 °F 69% 30.35 in - NNW 11.5 mph - N/A   Unknown
5:48 PM -5.1 °F -19.1 °F -11.9 °F 72% 30.38 in - West 6.9 mph - N/A   Unknown
6:48 PM -5.1 °F -24.3 °F -11.9 °F 72% 30.38 in - NW 12.7 mph - N/A   Unknown
7:48 PM -13.0 °F -28.6 °F -18.9 °F 75% 30.39 in - West 6.9 mph - N/A   Unknown
8:48 PM -16.1 °F -28.6 °F -20.9 °F 79% 30.38 in - West 4.6 mph - N/A   Unknown
9:48 PM -14.1 °F -28.3 °F -20.0 °F 75% 30.36 in - West 5.8 mph - N/A   Unknown
10:48 PM -15.0 °F -32.4 °F -20.0 °F 78% 30.35 in - WNW 8.1 mph - N/A   Unknown
11:48 PM -23.1 °F - -27.9 °F 78% 30.35 in - Calm Calm - N/A   Unknown